Time,TemperatureF,DewpointF,PressureIn,WindDirection,WindDirectionDegrees,WindSpeedMPH,WindSpeedGustMPH,Humidity,HourlyPrecipIn,Conditions,Clouds,dailyrainin,SoftwareType,DateUTC
2013-02-18 00:05:00,31.2,28.1,30.33,NNE,22,0.0,0.0,88,0.00,RA,,0.00,WeatherDisplay:10.37,2013-02-18 05:05:00,
2013-02-18 00:10:00,31.1,27.9,30.33,NNE,22,0.0,0.0,88,0.00,CLR,,0.00,WeatherDisplay:10.37,2013-02-18 05:10:00,
2013-02-18 00:15:00,31.1,28.2,30.33,NNE,22,0.0,0.0,89,0.00,CLR,,0.00,WeatherDisplay:10.37,2013-02-18 05:15:00,
2013-02-18 00:20:00,31.4,29.1,30.33,NNE,22,0.0,0.0,91,0.00,CLR,,0.00,WeatherDisplay:10.37,2013-02-18 05:20:00,
2013-02-18 00:25:00,31.5,29.2,30.33,NNE,22,0.0,0.0,91,0.00,CLR,,0.00,WeatherDisplay:10.37,2013-02-18 05:25:00,
2013-02-18 00:35:00,31.3,28.7,30.33,NNE,22,0.0,0.0,90,0.00,CLR,,0.00,WeatherDisplay:10.37,2013-02-18 05:35:00,
2013-02-18 00:40:00,31.2,28.6,30.33,NNE,22,0.0,0.0,90,0.00,CLR,,0.00,WeatherDisplay:10.37,2013-02-18 05:40:00,
2013-02-18 00:45:00,31.1,28.5,30.33,NNE,22,0.0,0.0,90,0.00,CLR,,0.00,WeatherDisplay:10.37,2013-02-18 05:45:00,
2013-02-18 00:50:00,31.2,28.9,30.33,NNE,22,0.0,0.0,91,0.00,CLR,,0.00,WeatherDisplay:10.37,2013-02-18 05:50:00,
2013-02-18 00:55:00,31.1,28.8,30.33,NNE,22,0.0,0.0,91,0.00,CLR,,0.00,WeatherDisplay:10.37,2013-02-18 05:55:00,
2013-02-18 01:00:00,31.0,28.7,30.33,NNE,22,0.0,0.0,91,0.00,CLR,,0.00,WeatherDisplay:10.37,2013-02-18 06:00:00,
2013-02-18 01:05:00,30.8,28.5,30.33,NNE,22,0.0,0.0,91,0.00,CLR,,0.00,WeatherDisplay:10.37,2013-02-18 06:05:00,
2013-02-18 01:15:00,30.8,28.8,30.33,NNE,22,0.0,0.0,92,0.00,CLR,,0.00,WeatherDisplay:10.37,2013-02-18 06:15:00,
2013-02-18 01:20:00,31.0,28.9,30.33,NNE,22,0.0,0.0,92,0.00,CLR,,0.00,WeatherDisplay:10.37,2013-02-18 06:20:00,
2013-02-18 01:30:00,30.7,28.4,30.33,NNE,22,0.0,0.0,91,0.00,CLR,,0.00,WeatherDisplay:10.37,2013-02-18 06:30:00,
2013-02-18 01:35:00,30.6,28.5,30.33,NNE,22,0.0,0.0,92,0.00,CLR,,0.00,WeatherDisplay:10.37,2013-02-18 06:35:00,
2013-02-18 01:40:00,30.5,28.5,30.33,NNE,22,0.0,0.0,92,0.00,CLR,,0.00,WeatherDisplay:10.37,2013-02-18 06:40:00,
2013-02-18 01:45:00,30.5,28.5,30.33,NNE,22,0.0,0.0,92,0.00,CLR,,0.00,WeatherDisplay:10.37,2013-02-18 06:45:00,
2013-02-18 01:55:00,30.5,28.5,30.34,NNE,22,0.0,0.0,92,0.00,CLR,,0.00,WeatherDisplay:10.37,2013-02-18 06:55:00,
2013-02-18 02:00:00,30.7,28.9,30.34,NNE,22,0.0,0.0,93,0.00,CLR,,0.00,WeatherDisplay:10.37,2013-02-18 07:00:00,
2013-02-18 02:05:00,30.6,28.8,30.34,NNE,22,0.0,0.0,93,0.00,CLR,,0.00,WeatherDisplay:10.37,2013-02-18 07:05:00,
2013-02-18 02:10:00,30.5,28.5,30.33,NNE,22,0.0,0.0,92,0.00,CLR,,0.00,WeatherDisplay:10.37,2013-02-18 07:10:00,
2013-02-18 02:15:00,30.4,28.4,30.33,NNE,22,0.0,0.0,92,0.00,CLR,,0.00,WeatherDisplay:10.37,2013-02-18 07:15:00,
2013-02-18 02:20:00,30.2,28.2,30.33,NNE,22,0.0,0.0,92,0.00,CLR,,0.00,WeatherDisplay:10.37,2013-02-18 07:20:00,
2013-02-18 02:25:00,30.1,28.1,30.33,NNE,22,0.0,0.0,92,0.00,CLR,,0.00,WeatherDisplay:10.37,2013-02-18 07:25:00,
2013-02-18 02:30:00,29.9,27.9,30.33,NNE,22,0.0,0.0,92,0.00,CLR,,0.00,WeatherDisplay:10.37,2013-02-18 07:30:00,
2013-02-18 02:35:00,29.9,27.9,30.33,NNE,22,0.0,0.0,92,0.00,CLR,,0.00,WeatherDisplay:10.37,2013-02-18 07:35:00,
2013-02-18 02:40:00,29.8,27.7,30.33,NNE,22,0.0,0.0,92,0.00,CLR,,0.00,WeatherDisplay:10.37,2013-02-18 07:40:00,
2013-02-18 02:45:00,29.7,27.7,30.33,NNE,22,0.0,0.0,92,0.00,CLR,,0.00,WeatherDisplay:10.37,2013-02-18 07:45:00,
2013-02-18 02:50:00,29.7,27.9,30.32,NNE,22,0.0,0.0,93,0.00,CLR,,0.00,WeatherDisplay:10.37,2013-02-18 07:50:00,
2013-02-18 02:55:00,29.7,27.9,30.33,NNE,22,0.0,0.0,93,0.00,CLR,,0.00,WeatherDisplay:10.37,2013-02-18 07:55:00,
2013-02-18 03:00:00,29.6,27.8,30.33,NNE,22,0.0,0.0,93,0.00,CLR,,0.00,WeatherDisplay:10.37,2013-02-18 08:00:00,
2013-02-18 03:05:00,29.4,27.3,30.32,NNE,22,0.0,0.0,92,0.00,CLR,,0.00,WeatherDisplay:10.37,2013-02-18 08:05:00,
2013-02-18 03:15:00,29.1,27.1,30.32,NNE,22,0.0,0.0,92,0.00,CLR,,0.00,WeatherDisplay:10.37,2013-02-18 08:15:00,
2013-02-18 03:20:00,29.0,27.0,30.32,NNE,22,0.0,0.0,92,0.00,CLR,,0.00,WeatherDisplay:10.37,2013-02-18 08:20:00,
2013-02-18 03:35:00,28.9,27.1,30.32,NNE,22,0.0,0.0,93,0.00,CLR,,0.00,WeatherDisplay:10.37,2013-02-18 08:35:00,
2013-02-18 03:40:00,28.8,27.0,30.32,NNE,22,0.0,0.0,93,0.00,CLR,,0.00,WeatherDisplay:10.37,2013-02-18 08:40:00,
2013-02-18 03:45:00,28.9,27.1,30.32,NNE,22,0.0,0.0,93,0.00,CLR,,0.00,WeatherDisplay:10.37,2013-02-18 08:45:00,
2013-02-18 03:50:00,29.0,27.2,30.32,NNE,22,0.0,0.0,93,0.00,CLR,,0.00,WeatherDisplay:10.37,2013-02-18 08:50:00,
2013-02-18 03:55:00,28.9,27.1,30.32,NNE,22,0.0,0.0,93,0.00,CLR,,0.00,WeatherDisplay:10.37,2013-02-18 08:55:00,
2013-02-18 04:00:00,28.8,27.0,30.32,NNE,22,0.0,0.0,93,0.00,CLR,,0.00,WeatherDisplay:10.37,2013-02-18 09:00:00,
2013-02-18 04:05:00,28.6,26.8,30.32,NNE,22,0.0,0.0,93,0.00,CLR,,0.00,WeatherDisplay:10.37,2013-02-18 09:05:00,
2013-02-18 04:10:00,28.5,26.5,30.32,NNE,22,0.0,0.0,92,0.00,CLR,,0.00,WeatherDisplay:10.37,2013-02-18 09:10:00,
2013-02-18 04:15:00,28.3,26.3,30.32,NNE,22,0.0,0.0,92,0.00,CLR,,0.00,WeatherDisplay:10.37,2013-02-18 09:15:00,
2013-02-18 04:20:00,28.1,26.1,30.32,NNE,22,0.0,0.0,92,0.00,CLR,,0.00,WeatherDisplay:10.37,2013-02-18 09:20:00,
2013-02-18 04:25:00,28.0,26.0,30.32,NNE,22,0.0,0.0,92,0.00,CLR,,0.00,WeatherDisplay:10.37,2013-02-18 09:25:00,
2013-02-18 04:30:00,27.9,25.9,30.32,NNE,22,0.0,0.0,92,0.00,CLR,,0.00,WeatherDisplay:10.37,2013-02-18 09:30:00,
2013-02-18 04:35:00,28.0,26.2,30.32,NNE,22,0.0,0.0,93,0.00,CLR,,0.00,WeatherDisplay:10.37,2013-02-18 09:35:00,
2013-02-18 04:40:00,28.0,26.2,30.32,NNE,22,0.0,0.0,93,0.00,CLR,,0.00,WeatherDisplay:10.37,2013-02-18 09:40:00,
2013-02-18 04:45:00,28.1,26.3,30.32,NNE,22,0.0,0.0,93,0.00,CLR,,0.00,WeatherDisplay:10.37,2013-02-18 09:45:00,
2013-02-18 04:50:00,28.0,26.2,30.32,NNE,22,0.0,0.0,93,0.00,CLR,,0.00,WeatherDisplay:10.37,2013-02-18 09:50:00,
2013-02-18 04:55:00,27.9,26.1,30.32,NNE,22,0.0,0.0,93,0.00,CLR,,0.00,WeatherDisplay:10.37,2013-02-18 09:55:00,
2013-02-18 05:00:00,27.9,26.1,30.32,NNE,22,0.0,0.0,93,0.00,CLR,,0.00,WeatherDisplay:10.37,2013-02-18 10:00:00,
2013-02-18 05:05:00,27.8,26.0,30.32,NNE,22,0.0,0.0,93,0.00,CLR,,0.00,WeatherDisplay:10.37,2013-02-18 10:05:00,
2013-02-18 05:10:00,27.8,26.0,30.32,NNE,22,0.0,0.0,93,0.00,CLR,,0.00,WeatherDisplay:10.37,2013-02-18 10:10:00,
2013-02-18 05:15:00,27.7,25.9,30.33,NNE,22,0.0,0.0,93,0.00,CLR,,0.00,WeatherDisplay:10.37,2013-02-18 10:15:00,
2013-02-18 05:20:00,27.8,26.0,30.33,NNE,22,0.0,0.0,93,0.00,CLR,,0.00,WeatherDisplay:10.37,2013-02-18 10:20:00,
2013-02-18 05:25:00,28.0,26.5,30.32,NNE,22,0.0,0.0,94,0.00,CLR,,0.00,WeatherDisplay:10.37,2013-02-18 10:25:00,
2013-02-18 05:30:00,28.2,26.7,30.33,NNE,22,0.0,0.0,94,0.00,CLR,,0.00,WeatherDisplay:10.37,2013-02-18 10:30:00,
2013-02-18 05:35:00,28.3,26.8,30.32,NNE,22,0.0,0.0,94,0.00,CLR,,0.00,WeatherDisplay:10.37,2013-02-18 10:35:00,
2013-02-18 05:40:00,28.5,27.0,30.33,NNE,22,0.0,0.0,94,0.00,CLR,,0.00,WeatherDisplay:10.37,2013-02-18 10:40:00,
2013-02-18 05:45:00,28.6,27.1,30.33,NNE,22,0.0,0.0,94,0.00,CLR,,0.00,WeatherDisplay:10.37,2013-02-18 10:45:00,
2013-02-18 05:50:00,28.6,27.1,30.33,NNE,22,0.0,0.0,94,0.00,CLR,,0.00,WeatherDisplay:10.37,2013-02-18 10:50:00,
2013-02-18 05:55:00,28.6,27.1,30.33,NNE,22,0.0,0.0,94,0.00,CLR,,0.00,WeatherDisplay:10.37,2013-02-18 10:55:00,
2013-02-18 06:00:00,28.6,27.1,30.33,NNE,22,0.0,0.0,94,0.00,CLR,,0.00,WeatherDisplay:10.37,2013-02-18 11:00:00,
2013-02-18 06:05:00,28.6,27.1,30.33,NNE,22,0.0,0.0,94,0.00,CLR,,0.00,WeatherDisplay:10.37,2013-02-18 11:05:00,
2013-02-18 06:10:00,28.6,27.1,30.33,NNE,22,0.0,0.0,94,0.00,CLR,,0.00,WeatherDisplay:10.37,2013-02-18 11:10:00,
2013-02-18 06:15:00,28.7,27.2,30.33,NNE,22,0.0,0.0,94,0.00,CLR,,0.00,WeatherDisplay:10.37,2013-02-18 11:15:00,
2013-02-18 06:20:00,28.7,27.2,30.33,NNE,22,0.0,0.0,94,0.00,CLR,,0.00,WeatherDisplay:10.37,2013-02-18 11:20:00,
2013-02-18 06:25:00,28.8,27.0,30.33,NNE,22,0.0,0.0,93,0.00,CLR,,0.00,WeatherDisplay:10.37,2013-02-18 11:25:00,
2013-02-18 06:30:00,28.7,27.0,30.33,NNE,22,0.0,0.0,93,0.00,CLR,,0.00,WeatherDisplay:10.37,2013-02-18 11:30:00,
2013-02-18 06:35:00,28.6,26.8,30.33,NNE,22,0.0,0.0,93,0.00,CLR,,0.00,WeatherDisplay:10.37,2013-02-18 11:35:00,
2013-02-18 06:40:00,28.6,26.8,30.33,NNE,22,0.0,0.0,93,0.00,CLR,,0.00,WeatherDisplay:10.37,2013-02-18 11:40:00,
2013-02-18 06:45:00,28.7,26.9,30.33,NNE,22,0.0,0.0,93,0.00,CLR,,0.00,WeatherDisplay:10.37,2013-02-18 11:45:00,
2013-02-18 06:50:00,28.8,27.3,30.34,NNE,22,0.0,0.0,94,0.00,CLR,,0.00,WeatherDisplay:10.37,2013-02-18 11:50:00,
2013-02-18 06:55:00,28.7,26.9,30.34,NNE,22,0.0,0.0,93,0.00,CLR,,0.00,WeatherDisplay:10.37,2013-02-18 11:55:00,
2013-02-18 07:00:00,28.6,26.9,30.34,NNE,22,0.0,0.0,93,0.00,CLR,,0.00,WeatherDisplay:10.37,2013-02-18 12:00:00,
2013-02-18 07:05:00,28.5,26.7,30.34,NNE,22,0.0,0.0,93,0.00,CLR,,0.00,WeatherDisplay:10.37,2013-02-18 12:05:00,
2013-02-18 07:10:00,28.7,26.9,30.34,NNE,22,0.0,0.0,93,0.00,CLR,,0.00,WeatherDisplay:10.37,2013-02-18 12:10:00,
2013-02-18 07:15:00,28.8,27.0,30.34,NNE,22,0.0,0.0,93,0.00,CLR,,0.00,WeatherDisplay:10.37,2013-02-18 12:15:00,
2013-02-18 07:20:00,28.8,27.0,30.34,NNE,22,0.0,0.0,93,0.00,CLR,,0.00,WeatherDisplay:10.37,2013-02-18 12:20:00,
2013-02-18 07:25:00,28.8,27.3,30.34,NNE,22,0.0,0.0,94,0.00,CLR,,0.00,WeatherDisplay:10.37,2013-02-18 12:25:00,
2013-02-18 07:30:00,29.0,27.2,30.34,NNE,22,0.0,0.0,93,0.00,CLR,,0.00,WeatherDisplay:10.37,2013-02-18 12:30:00,
2013-02-18 07:35:00,29.2,27.7,30.34,NNE,22,0.0,0.0,94,0.00,CLR,,0.00,WeatherDisplay:10.37,2013-02-18 12:35:00,
2013-02-18 07:40:00,29.5,28.0,30.34,NE,42,0.0,0.0,94,0.00,CLR,,0.00,WeatherDisplay:10.37,2013-02-18 12:40:00,
2013-02-18 07:45:00,29.8,28.3,30.34,ENE,61,0.0,0.0,94,0.00,CLR,,0.00,WeatherDisplay:10.37,2013-02-18 12:45:00,
2013-02-18 07:50:00,30.2,28.7,30.34,ENE,61,0.0,0.0,94,0.00,CLR,,0.00,WeatherDisplay:10.37,2013-02-18 12:50:00,
2013-02-18 07:55:00,30.7,29.4,30.34,ENE,61,0.0,0.0,95,0.00,CLR,,0.00,WeatherDisplay:10.37,2013-02-18 12:55:00,
2013-02-18 08:00:00,31.0,29.8,30.34,ENE,61,0.0,0.0,95,0.00,CLR,,0.00,WeatherDisplay:10.37,2013-02-18 13:00:00,
2013-02-18 08:05:00,31.5,30.3,30.34,ENE,61,0.0,0.0,95,0.00,CLR,,0.00,WeatherDisplay:10.37,2013-02-18 13:05:00,
2013-02-18 08:10:00,32.0,30.8,30.34,ENE,61,0.0,0.0,95,0.00,CLR,,0.00,WeatherDisplay:10.37,2013-02-18 13:10:00,
2013-02-18 08:15:00,32.6,31.3,30.34,ENE,61,0.0,0.0,95,0.00,CLR,,0.00,WeatherDisplay:10.37,2013-02-18 13:15:00,
2013-02-18 08:20:00,33.2,31.9,30.35,ENE,61,0.0,0.0,95,0.00,CLR,,0.00,WeatherDisplay:10.37,2013-02-18 13:20:00,
2013-02-18 08:25:00,34.0,32.8,30.35,ENE,61,0.0,1.0,95,0.00,CLR,,0.00,WeatherDisplay:10.37,2013-02-18 13:25:00,
2013-02-18 08:30:00,34.8,33.8,30.34,ENE,60,0.0,1.0,96,0.00,CLR,,0.00,WeatherDisplay:10.37,2013-02-18 13:30:00,
2013-02-18 08:35:00,35.9,34.6,30.35,ENE,60,0.0,0.0,95,0.00,CLR,,0.00,WeatherDisplay:10.37,2013-02-18 13:35:00,
2013-02-18 08:40:00,36.8,35.5,30.35,ENE,59,0.0,2.0,95,0.00,CLR,,0.00,WeatherDisplay:10.37,2013-02-18 13:40:00,
2013-02-18 08:45:00,38.4,36.0,30.35,NE,46,0.0,3.0,91,0.01,RA,,0.01,WeatherDisplay:10.37,2013-02-18 13:45:00,
2013-02-18 08:50:00,40.4,36.0,30.35,NNE,21,0.0,3.0,84,0.00,RA,,0.01,WeatherDisplay:10.37,2013-02-18 13:50:00,
2013-02-18 08:55:00,42.0,36.3,30.35,NNE,27,0.0,2.0,80,0.00,CLR,,0.01,WeatherDisplay:10.37,2013-02-18 13:55:00,
2013-02-18 09:00:00,43.5,36.1,30.35,NNE,25,1.0,4.0,75,0.00,CLR,,0.01,WeatherDisplay:10.37,2013-02-18 14:00:00,
2013-02-18 09:05:00,44.8,35.2,30.35,NNE,26,0.0,3.0,69,0.00,CLR,,0.01,WeatherDisplay:10.37,2013-02-18 14:05:00,
2013-02-18 09:10:00,46.0,35.7,30.35,NNE,28,1.0,3.0,67,0.00,CLR,,0.01,WeatherDisplay:10.37,2013-02-18 14:10:00,
2013-02-18 09:15:00,47.3,35.8,30.35,NE,35,1.0,6.0,64,0.00,CLR,,0.01,WeatherDisplay:10.37,2013-02-18 14:15:00,
2013-02-18 09:20:00,48.4,35.6,30.35,NE,35,1.0,4.0,61,0.00,CLR,,0.01,WeatherDisplay:10.37,2013-02-18 14:20:00,
2013-02-18 09:25:00,49.4,35.2,30.35,North,11,0.0,4.0,58,0.00,CLR,,0.01,WeatherDisplay:10.37,2013-02-18 14:25:00,
2013-02-18 09:30:00,50.2,36.0,30.35,North,10,1.0,4.0,58,0.00,CLR,,0.01,WeatherDisplay:10.37,2013-02-18 14:30:00,
2013-02-18 09:35:00,51.2,36.0,30.35,NE,41,2.0,5.0,56,0.01,RA,,0.02,WeatherDisplay:10.37,2013-02-18 14:35:00,
2013-02-18 09:40:00,51.9,35.8,30.35,NE,35,1.0,5.0,54,0.00,RA,,0.02,WeatherDisplay:10.37,2013-02-18 14:40:00,
2013-02-18 09:45:00,52.8,35.1,30.35,ENE,57,0.0,5.0,51,0.00,CLR,,0.02,WeatherDisplay:10.37,2013-02-18 14:45:00,
2013-02-18 09:50:00,53.7,35.5,30.35,ENE,62,2.0,7.0,50,0.00,CLR,,0.02,WeatherDisplay:10.37,2013-02-18 14:50:00,
2013-02-18 09:55:00,54.2,36.0,30.35,NNE,20,1.0,6.0,50,0.00,CLR,,0.02,WeatherDisplay:10.37,2013-02-18 14:55:00,
2013-02-18 10:00:00,54.7,35.9,30.35,NNE,20,2.0,4.0,49,0.00,CLR,,0.02,WeatherDisplay:10.37,2013-02-18 15:00:00,
2013-02-18 10:05:00,55.5,36.1,30.35,NNE,24,1.0,6.0,48,0.00,CLR,,0.02,WeatherDisplay:10.37,2013-02-18 15:05:00,
2013-02-18 10:10:00,56.0,36.0,30.35,NE,41,1.0,4.0,47,0.00,CLR,,0.02,WeatherDisplay:10.37,2013-02-18 15:10:00,
2013-02-18 10:15:00,56.6,37.1,30.35,NNE,31,1.0,7.0,48,0.00,CLR,,0.02,WeatherDisplay:10.37,2013-02-18 15:15:00,
2013-02-18 10:20:00,57.3,37.8,30.35,NNE,23,0.0,7.0,48,0.00,CLR,,0.02,WeatherDisplay:10.37,2013-02-18 15:20:00,
2013-02-18 10:25:00,57.5,36.9,30.35,NE,43,2.0,8.0,46,0.00,CLR,,0.02,WeatherDisplay:10.37,2013-02-18 15:25:00,
2013-02-18 10:30:00,58.0,37.9,30.34,NE,53,2.0,8.0,47,0.00,CLR,,0.02,WeatherDisplay:10.37,2013-02-18 15:30:00,
2013-02-18 10:40:00,58.9,38.1,30.35,NE,34,1.0,7.0,46,0.00,CLR,,0.02,WeatherDisplay:10.37,2013-02-18 15:40:00,
2013-02-18 10:45:00,59.3,39.0,30.34,NE,41,2.0,7.0,47,0.00,CLR,,0.02,WeatherDisplay:10.37,2013-02-18 15:45:00,
2013-02-18 10:50:00,59.6,37.1,30.35,ENE,67,2.0,12.0,43,0.00,CLR,,0.02,WeatherDisplay:10.37,2013-02-18 15:50:00,
2013-02-18 11:00:00,60.1,38.1,30.34,NE,34,1.0,6.0,44,0.00,CLR,,0.02,WeatherDisplay:10.37,2013-02-18 16:00:00,
2013-02-18 11:05:00,60.4,38.9,30.34,NE,45,1.0,7.0,45,0.00,CLR,,0.02,WeatherDisplay:10.37,2013-02-18 16:05:00,
2013-02-18 11:10:00,60.9,40.5,30.34,ENE,67,1.0,7.0,47,0.00,CLR,,0.02,WeatherDisplay:10.37,2013-02-18 16:10:00,
2013-02-18 11:15:00,61.3,40.3,30.34,NNE,24,0.0,7.0,46,0.00,CLR,,0.02,WeatherDisplay:10.37,2013-02-18 16:15:00,
2013-02-18 11:20:00,61.8,40.8,30.34,NE,47,1.0,5.0,46,0.01,RA,,0.03,WeatherDisplay:10.37,2013-02-18 16:20:00,
2013-02-18 11:25:00,62.3,41.8,30.34,NE,56,1.0,9.0,47,0.00,RA,,0.03,WeatherDisplay:10.37,2013-02-18 16:25:00,
2013-02-18 11:30:00,62.7,41.6,30.33,ENE,57,1.0,9.0,46,0.00,CLR,,0.03,WeatherDisplay:10.37,2013-02-18 16:30:00,
2013-02-18 11:35:00,63.2,42.7,30.34,ENE,74,2.0,12.0,47,0.00,CLR,,0.03,WeatherDisplay:10.37,2013-02-18 16:35:00,
2013-02-18 11:40:00,63.8,42.0,30.33,East,79,2.0,8.0,45,0.00,CLR,,0.03,WeatherDisplay:10.37,2013-02-18 16:40:00,
2013-02-18 11:45:00,64.1,41.7,30.33,East,81,0.0,5.0,44,0.00,CLR,,0.03,WeatherDisplay:10.37,2013-02-18 16:45:00,
2013-02-18 11:50:00,64.3,41.9,30.33,East,87,0.0,5.0,44,0.00,CLR,,0.03,WeatherDisplay:10.37,2013-02-18 16:50:00,
2013-02-18 12:00:00,64.7,42.2,30.33,East,88,1.0,10.0,44,0.00,RA,,0.05,WeatherDisplay:10.37,2013-02-18 17:00:00,
2013-02-18 12:05:00,65.1,42.0,30.33,ENE,72,1.0,8.0,43,0.00,CLR,,0.05,WeatherDisplay:10.37,2013-02-18 17:05:00,
2013-02-18 12:15:00,65.3,41.6,30.32,NE,36,1.0,4.0,42,0.00,CLR,,0.05,WeatherDisplay:10.37,2013-02-18 17:15:00,
2013-02-18 12:20:00,64.8,41.8,30.32,NE,56,0.0,5.0,43,0.00,CLR,,0.05,WeatherDisplay:10.37,2013-02-18 17:20:00,
2013-02-18 12:25:00,65.1,43.2,30.32,SE,137,2.0,8.0,45,0.00,CLR,,0.05,WeatherDisplay:10.37,2013-02-18 17:25:00,
2013-02-18 12:35:00,65.9,43.9,30.31,SE,146,1.0,6.0,45,0.00,CLR,,0.05,WeatherDisplay:10.37,2013-02-18 17:35:00,
2013-02-18 12:40:00,66.2,44.2,30.30,SE,136,2.0,7.0,45,0.00,CLR,,0.05,WeatherDisplay:10.37,2013-02-18 17:40:00,
2013-02-18 12:50:00,66.8,44.7,30.30,ESE,110,5.0,9.0,45,0.00,CLR,,0.05,WeatherDisplay:10.37,2013-02-18 17:50:00,
2013-02-18 12:55:00,66.6,44.6,30.29,East,99,1.0,10.0,45,0.00,CLR,,0.05,WeatherDisplay:10.37,2013-02-18 17:55:00,
2013-02-18 13:00:00,66.3,44.3,30.29,ESE,118,1.0,7.0,45,0.00,CLR,,0.05,WeatherDisplay:10.37,2013-02-18 18:00:00,
2013-02-18 13:05:00,66.5,44.5,30.29,SSE,153,3.0,13.0,45,0.00,CLR,,0.05,WeatherDisplay:10.37,2013-02-18 18:05:00,
2013-02-18 13:10:00,66.5,44.5,30.28,SSE,166,5.0,10.0,45,0.00,CLR,,0.05,WeatherDisplay:10.37,2013-02-18 18:10:00,
2013-02-18 13:15:00,66.4,45.0,30.28,SE,146,1.0,9.0,46,0.00,CLR,,0.05,WeatherDisplay:10.37,2013-02-18 18:15:00,
2013-02-18 13:20:00,67.1,45.6,30.27,ESE,116,2.0,7.0,46,0.00,CLR,,0.05,WeatherDisplay:10.37,2013-02-18 18:20:00,
2013-02-18 13:25:00,67.4,45.3,30.27,SE,140,2.0,5.0,45,0.00,CLR,,0.05,WeatherDisplay:10.37,2013-02-18 18:25:00,
2013-02-18 13:35:00,67.8,45.7,30.27,ESE,105,2.0,8.0,45,0.00,CLR,,0.05,WeatherDisplay:10.37,2013-02-18 18:35:00,
2013-02-18 13:45:00,68.2,44.2,30.26,ESE,116,7.0,12.0,42,0.00,CLR,,0.05,WeatherDisplay:10.37,2013-02-18 18:45:00,
2013-02-18 13:55:00,68.0,45.9,30.26,SE,138,3.0,8.0,45,0.00,CLR,,0.05,WeatherDisplay:10.37,2013-02-18 18:55:00,
2013-02-18 14:00:00,68.1,45.3,30.26,East,97,1.0,8.0,44,0.00,CLR,,0.05,WeatherDisplay:10.37,2013-02-18 19:00:00,
2013-02-18 14:05:00,67.4,44.1,30.25,SE,127,2.0,9.0,43,0.00,CLR,,0.05,WeatherDisplay:10.37,2013-02-18 19:05:00,
2013-02-18 14:10:00,67.8,45.1,30.25,SE,140,3.0,9.0,44,0.00,CLR,,0.05,WeatherDisplay:10.37,2013-02-18 19:10:00,
2013-02-18 14:15:00,67.6,45.5,30.25,SE,143,1.0,9.0,45,0.00,CLR,,0.05,WeatherDisplay:10.37,2013-02-18 19:15:00,
2013-02-18 14:25:00,68.4,45.7,30.25,ESE,115,1.0,8.0,44,0.00,CLR,,0.05,WeatherDisplay:10.37,2013-02-18 19:25:00,
2013-02-18 14:30:00,68.5,45.7,30.25,ESE,102,2.0,13.0,44,0.00,CLR,,0.05,WeatherDisplay:10.37,2013-02-18 19:30:00,
2013-02-18 14:40:00,67.7,45.6,30.25,SE,142,2.0,10.0,45,0.00,CLR,,0.05,WeatherDisplay:10.37,2013-02-18 19:40:00,
2013-02-18 14:45:00,68.4,47.3,30.26,SSE,150,1.0,7.0,47,0.00,CLR,,0.05,WeatherDisplay:10.37,2013-02-18 19:45:00,
2013-02-18 14:50:00,67.9,46.3,30.25,East,91,6.0,15.0,46,0.00,CLR,,0.05,WeatherDisplay:10.37,2013-02-18 19:50:00,
2013-02-18 14:55:00,66.9,45.4,30.25,East,86,1.0,10.0,46,0.00,CLR,,0.05,WeatherDisplay:10.37,2013-02-18 19:55:00,
2013-02-18 15:00:00,67.4,46.4,30.25,ESE,106,2.0,7.0,47,0.00,CLR,,0.05,WeatherDisplay:10.37,2013-02-18 20:00:00,
2013-02-18 15:05:00,68.1,47.1,30.25,ESE,102,5.0,9.0,47,0.00,CLR,,0.05,WeatherDisplay:10.37,2013-02-18 20:05:00,
2013-02-18 15:10:00,68.3,46.7,30.25,East,88,1.0,9.0,46,0.00,CLR,,0.05,WeatherDisplay:10.37,2013-02-18 20:10:00,
2013-02-18 15:15:00,68.3,46.7,30.25,East,95,6.0,10.0,46,0.00,CLR,,0.05,WeatherDisplay:10.37,2013-02-18 20:15:00,
2013-02-18 15:20:00,68.0,46.4,30.25,SE,138,2.0,8.0,46,0.00,CLR,,0.05,WeatherDisplay:10.37,2013-02-18 20:20:00,
2013-02-18 15:25:00,68.0,46.4,30.25,SSE,161,2.0,9.0,46,0.00,CLR,,0.05,WeatherDisplay:10.37,2013-02-18 20:25:00,
2013-02-18 15:30:00,67.4,45.9,30.25,ESE,111,1.0,9.0,46,0.00,CLR,,0.05,WeatherDisplay:10.37,2013-02-18 20:30:00,
2013-02-18 15:35:00,67.0,46.7,30.25,ENE,77,1.0,6.0,48,0.00,CLR,,0.05,WeatherDisplay:10.37,2013-02-18 20:35:00,
2013-02-18 15:45:00,66.9,46.0,30.24,East,88,0.0,4.0,47,0.00,CLR,,0.05,WeatherDisplay:10.37,2013-02-18 20:45:00,
2013-02-18 15:50:00,66.7,45.8,30.25,East,91,1.0,10.0,47,0.00,CLR,,0.05,WeatherDisplay:10.37,2013-02-18 20:50:00,
2013-02-18 15:55:00,66.1,45.3,30.25,SSE,150,3.0,12.0,47,0.00,CLR,,0.05,WeatherDisplay:10.37,2013-02-18 20:55:00,
2013-02-18 16:00:00,65.6,45.4,30.25,SSE,147,5.0,10.0,48,0.00,CLR,,0.05,WeatherDisplay:10.37,2013-02-18 21:00:00,
2013-02-18 16:05:00,65.4,45.7,30.25,SE,137,2.0,8.0,49,0.00,CLR,,0.05,WeatherDisplay:10.37,2013-02-18 21:05:00,
2013-02-18 16:10:00,65.5,46.4,30.25,SSE,149,6.0,12.0,50,0.00,CLR,,0.05,WeatherDisplay:10.37,2013-02-18 21:10:00,
2013-02-18 16:15:00,65.6,46.5,30.25,SE,133,1.0,7.0,50,0.00,CLR,,0.05,WeatherDisplay:10.37,2013-02-18 21:15:00,
2013-02-18 16:20:00,65.6,45.9,30.25,SE,128,2.0,10.0,49,0.00,CLR,,0.05,WeatherDisplay:10.37,2013-02-18 21:20:00,
2013-02-18 16:25:00,65.3,45.7,30.25,SE,130,1.0,8.0,49,0.00,CLR,,0.05,WeatherDisplay:10.37,2013-02-18 21:25:00,
2013-02-18 16:30:00,65.0,45.9,30.25,SE,124,1.0,9.0,50,0.00,CLR,,0.05,WeatherDisplay:10.37,2013-02-18 21:30:00,
2013-02-18 16:40:00,65.0,45.9,30.25,SE,140,0.0,4.0,50,0.00,CLR,,0.05,WeatherDisplay:10.37,2013-02-18 21:40:00,
2013-02-18 16:45:00,65.1,46.5,30.25,ESE,107,2.0,8.0,51,0.00,CLR,,0.05,WeatherDisplay:10.37,2013-02-18 21:45:00,
2013-02-18 16:50:00,65.1,47.0,30.25,ENE,78,1.0,4.0,52,0.00,CLR,,0.05,WeatherDisplay:10.37,2013-02-18 21:50:00,
2013-02-18 17:00:00,64.8,46.3,30.25,SE,132,2.0,9.0,51,0.00,CLR,,0.05,WeatherDisplay:10.37,2013-02-18 22:00:00,
2013-02-18 17:05:00,64.3,46.3,30.25,SSE,154,1.0,12.0,52,0.00,CLR,,0.05,WeatherDisplay:10.37,2013-02-18 22:05:00,
2013-02-18 17:10:00,64.0,47.0,30.24,SE,142,2.0,7.0,54,0.00,CLR,,0.05,WeatherDisplay:10.37,2013-02-18 22:10:00,
2013-02-18 17:15:00,63.7,47.2,30.25,ESE,114,0.0,8.0,55,0.00,CLR,,0.05,WeatherDisplay:10.37,2013-02-18 22:15:00,
2013-02-18 17:25:00,63.2,47.2,30.25,ESE,116,2.0,9.0,56,0.00,CLR,,0.05,WeatherDisplay:10.37,2013-02-18 22:25:00,
2013-02-18 17:35:00,62.7,47.2,30.25,East,91,0.0,7.0,57,0.00,CLR,,0.05,WeatherDisplay:10.37,2013-02-18 22:35:00,
2013-02-18 17:40:00,62.4,47.5,30.25,ESE,102,1.0,5.0,58,0.00,CLR,,0.05,WeatherDisplay:10.37,2013-02-18 22:40:00,
2013-02-18 17:45:00,62.2,47.2,30.25,SE,132,1.0,7.0,58,0.00,CLR,,0.05,WeatherDisplay:10.37,2013-02-18 22:45:00,
2013-02-18 17:50:00,62.1,47.6,30.25,SE,135,1.0,8.0,59,0.00,CLR,,0.05,WeatherDisplay:10.37,2013-02-18 22:50:00,
2013-02-18 17:55:00,61.8,47.3,30.25,SSE,148,0.0,2.0,59,0.00,CLR,,0.05,WeatherDisplay:10.37,2013-02-18 22:55:00,
2013-02-18 18:00:00,61.6,47.5,30.25,ESE,105,0.0,3.0,60,0.00,CLR,,0.05,WeatherDisplay:10.37,2013-02-18 23:00:00,
2013-02-18 18:05:00,61.3,47.3,30.25,East,90,0.0,6.0,60,0.00,CLR,,0.05,WeatherDisplay:10.37,2013-02-18 23:05:00,
2013-02-18 18:15:00,60.9,47.3,30.25,East,91,1.0,5.0,61,0.00,CLR,,0.05,WeatherDisplay:10.37,2013-02-18 23:15:00,
2013-02-18 18:20:00,60.6,47.1,30.25,East,87,0.0,2.0,61,0.00,CLR,,0.05,WeatherDisplay:10.37,2013-02-18 23:20:00,
2013-02-18 18:25:00,60.4,47.3,30.25,East,82,1.0,3.0,62,0.00,CLR,,0.05,WeatherDisplay:10.37,2013-02-18 23:25:00,
2013-02-18 18:30:00,60.1,47.0,30.25,East,82,0.0,3.0,62,0.00,CLR,,0.05,WeatherDisplay:10.37,2013-02-18 23:30:00,
2013-02-18 18:35:00,59.8,47.2,30.25,East,84,1.0,3.0,63,0.00,CLR,,0.05,WeatherDisplay:10.37,2013-02-18 23:35:00,
2013-02-18 18:40:00,59.5,46.8,30.25,East,84,0.0,3.0,63,0.00,CLR,,0.05,WeatherDisplay:10.37,2013-02-18 23:40:00,
2013-02-18 18:45:00,59.1,46.9,30.25,East,84,0.0,1.0,64,0.00,CLR,,0.05,WeatherDisplay:10.37,2013-02-18 23:45:00,
2013-02-18 18:50:00,58.8,47.1,30.24,East,84,0.0,1.0,65,0.00,CLR,,0.05,WeatherDisplay:10.37,2013-02-18 23:50:00,
2013-02-18 18:55:00,58.5,46.8,30.24,East,84,0.0,1.0,65,0.00,CLR,,0.05,WeatherDisplay:10.37,2013-02-18 23:55:00,
2013-02-18 19:00:00,58.2,46.8,30.24,East,84,0.0,2.0,66,0.00,CLR,,0.05,WeatherDisplay:10.37,2013-02-19 00:00:00,
2013-02-18 19:05:00,57.8,46.5,30.24,East,84,0.0,2.0,66,0.00,CLR,,0.05,WeatherDisplay:10.37,2013-02-19 00:05:00,
2013-02-18 19:10:00,57.6,46.3,30.24,East,84,0.0,1.0,66,0.00,CLR,,0.05,WeatherDisplay:10.37,2013-02-19 00:10:00,
2013-02-18 19:20:00,57.1,46.2,30.24,ENE,74,0.0,3.0,67,0.00,CLR,,0.05,WeatherDisplay:10.37,2013-02-19 00:20:00,
2013-02-18 19:25:00,56.9,46.1,30.24,ENE,72,0.0,0.0,67,0.00,CLR,,0.05,WeatherDisplay:10.37,2013-02-19 00:25:00,
2013-02-18 19:30:00,56.6,46.2,30.24,ENE,72,0.0,1.0,68,0.00,CLR,,0.05,WeatherDisplay:10.37,2013-02-19 00:30:00,
2013-02-18 19:35:00,56.4,46.4,30.24,ENE,72,0.0,0.0,69,0.00,CLR,,0.05,WeatherDisplay:10.37,2013-02-19 00:35:00,
2013-02-18 19:45:00,56.0,46.4,30.23,ENE,73,0.0,1.0,70,0.00,CLR,,0.05,WeatherDisplay:10.37,2013-02-19 00:45:00,
2013-02-18 19:50:00,55.8,46.1,30.24,ENE,73,0.0,0.0,70,0.00,CLR,,0.05,WeatherDisplay:10.37,2013-02-19 00:50:00,
2013-02-18 19:55:00,55.5,45.9,30.24,ENE,73,0.0,0.0,70,0.00,CLR,,0.05,WeatherDisplay:10.37,2013-02-19 00:55:00,
2013-02-18 20:00:00,55.3,46.0,30.24,ENE,73,0.0,1.0,71,0.00,CLR,,0.05,WeatherDisplay:10.37,2013-02-19 01:00:00,
2013-02-18 20:05:00,55.0,46.1,30.24,ENE,73,0.0,0.0,72,0.00,CLR,,0.05,WeatherDisplay:10.37,2013-02-19 01:05:00,
2013-02-18 20:15:00,54.7,46.2,30.24,ENE,73,0.0,0.0,73,0.00,CLR,,0.05,WeatherDisplay:10.37,2013-02-19 01:15:00,
2013-02-18 20:20:00,54.6,46.5,30.24,ENE,73,0.0,1.0,74,0.00,CLR,,0.05,WeatherDisplay:10.37,2013-02-19 01:20:00,
2013-02-18 20:25:00,54.8,46.7,30.24,ENE,73,0.0,1.0,74,0.00,CLR,,0.05,WeatherDisplay:10.37,2013-02-19 01:25:00,
2013-02-18 20:30:00,55.1,46.6,30.25,ENE,73,0.0,0.0,73,0.00,CLR,,0.05,WeatherDisplay:10.37,2013-02-19 01:30:00,
2013-02-18 20:35:00,55.1,47.0,30.25,ENE,73,0.0,1.0,74,0.00,CLR,,0.05,WeatherDisplay:10.37,2013-02-19 01:35:00,
2013-02-18 20:40:00,55.2,47.0,30.25,ENE,73,0.0,0.0,74,0.00,CLR,,0.05,WeatherDisplay:10.37,2013-02-19 01:40:00,
2013-02-18 20:50:00,55.3,47.2,30.24,ENE,73,0.0,0.0,74,0.00,CLR,,0.05,WeatherDisplay:10.37,2013-02-19 01:50:00,
2013-02-18 20:55:00,55.3,47.2,30.24,ENE,73,0.0,0.0,74,0.00,CLR,,0.05,WeatherDisplay:10.37,2013-02-19 01:55:00,
2013-02-18 21:00:00,55.3,46.8,30.24,ENE,73,0.0,0.0,73,0.00,CLR,,0.05,WeatherDisplay:10.37,2013-02-19 02:00:00,
2013-02-18 21:10:00,55.0,46.9,30.24,ENE,73,0.0,0.0,74,0.00,CLR,,0.05,WeatherDisplay:10.37,2013-02-19 02:10:00,
2013-02-18 21:15:00,55.0,47.2,30.24,ENE,73,0.0,0.0,75,0.00,CLR,,0.05,WeatherDisplay:10.37,2013-02-19 02:15:00,
2013-02-18 21:20:00,54.9,47.1,30.24,ENE,73,0.0,0.0,75,0.00,CLR,,0.05,WeatherDisplay:10.37,2013-02-19 02:20:00,
2013-02-18 21:25:00,54.8,47.0,30.24,ENE,73,0.0,0.0,75,0.00,CLR,,0.05,WeatherDisplay:10.37,2013-02-19 02:25:00,
2013-02-18 21:30:00,54.6,46.8,30.24,ENE,73,0.0,0.0,75,0.00,CLR,,0.05,WeatherDisplay:10.37,2013-02-19 02:30:00,
2013-02-18 21:35:00,54.4,47.0,30.24,ENE,73,0.0,0.0,76,0.00,CLR,,0.05,WeatherDisplay:10.37,2013-02-19 02:35:00,
2013-02-18 21:40:00,54.1,47.1,30.24,ENE,73,0.0,0.0,77,0.00,CLR,,0.05,WeatherDisplay:10.37,2013-02-19 02:40:00,
2013-02-18 21:50:00,53.5,46.1,30.23,ENE,73,0.0,0.0,76,0.00,CLR,,0.05,WeatherDisplay:10.37,2013-02-19 02:50:00,
2013-02-18 21:55:00,53.0,46.0,30.23,ENE,73,0.0,0.0,77,0.00,CLR,,0.05,WeatherDisplay:10.37,2013-02-19 02:55:00,
2013-02-18 22:00:00,52.6,45.9,30.23,ENE,73,0.0,0.0,78,0.00,CLR,,0.05,WeatherDisplay:10.37,2013-02-19 03:00:00,
2013-02-18 22:05:00,52.1,45.5,30.23,ENE,73,0.0,0.0,78,0.00,CLR,,0.05,WeatherDisplay:10.37,2013-02-19 03:05:00,
2013-02-18 22:15:00,51.4,45.7,30.22,ENE,73,0.0,0.0,81,0.00,CLR,,0.05,WeatherDisplay:10.37,2013-02-19 03:15:00,
2013-02-18 22:20:00,51.0,45.0,30.22,ENE,73,0.0,0.0,80,0.00,CLR,,0.05,WeatherDisplay:10.37,2013-02-19 03:20:00,
2013-02-18 22:25:00,50.7,45.1,30.22,ENE,73,0.0,0.0,81,0.00,CLR,,0.05,WeatherDisplay:10.37,2013-02-19 03:25:00,
2013-02-18 22:30:00,50.4,45.1,30.22,ENE,73,0.0,0.0,82,0.00,CLR,,0.05,WeatherDisplay:10.37,2013-02-19 03:30:00,
2013-02-18 22:35:00,50.1,44.8,30.22,ENE,73,0.0,0.0,82,0.00,CLR,,0.05,WeatherDisplay:10.37,2013-02-19 03:35:00,
2013-02-18 22:40:00,49.7,44.8,30.22,ENE,73,0.0,0.0,83,0.00,CLR,,0.05,WeatherDisplay:10.37,2013-02-19 03:40:00,
2013-02-18 22:50:00,49.2,44.9,30.22,ENE,73,0.0,0.0,85,0.00,CLR,,0.05,WeatherDisplay:10.37,2013-02-19 03:50:00,
2013-02-18 23:00:00,48.7,44.7,30.21,ENE,73,0.0,0.0,86,0.00,CLR,,0.05,WeatherDisplay:10.37,2013-02-19 04:00:00,
2013-02-18 23:05:00,48.6,44.9,30.21,ENE,73,0.0,0.0,87,0.00,CLR,,0.05,WeatherDisplay:10.37,2013-02-19 04:05:00,
2013-02-18 23:10:00,48.5,44.8,30.20,ENE,73,0.0,0.0,87,0.00,CLR,,0.05,WeatherDisplay:10.37,2013-02-19 04:10:00,
2013-02-18 23:20:00,48.0,44.0,30.20,ENE,73,0.0,0.0,86,0.00,CLR,,0.05,WeatherDisplay:10.37,2013-02-19 04:20:00,
2013-02-18 23:25:00,47.7,44.0,30.20,ENE,73,0.0,0.0,87,0.00,CLR,,0.05,WeatherDisplay:10.37,2013-02-19 04:25:00,
2013-02-18 23:30:00,47.5,43.8,30.20,ENE,73,0.0,0.0,87,0.00,CLR,,0.05,WeatherDisplay:10.37,2013-02-19 04:30:00,
2013-02-18 23:35:00,47.5,44.4,30.20,ENE,73,0.0,0.0,89,0.00,CLR,,0.05,WeatherDisplay:10.37,2013-02-19 04:35:00,
2013-02-18 23:45:00,47.2,44.1,30.20,ENE,73,0.0,0.0,89,0.00,CLR,,0.05,WeatherDisplay:10.37,2013-02-19 04:45:00,
2013-02-18 23:55:00,47.1,44.3,30.20,ENE,73,0.0,0.0,90,0.00,CLR,,0.05,WeatherDisplay:10.37,2013-02-19 04:55:00,